QPF
0.01 0.00 0.00 0.06 0.06 0.02 0.05 0.08 0.13 0.06 0.02 0.01 0.01 0.00 0.00 0.00 0.00 0.00 0.00 0.00 0.01 0.01 0.00 0.00 0.01 0.01 0.00 0.01 0.00 0.00 0.00 0.00 0.00 0.00 0.00 0.00 0.00 0.00 0.00 0.00 0.00 0.00 0.00
0.01 0.00 0.01 0.08 0.05 0.02 0.03 0.06 0.05 0.04 0.02 0.00 0.00 0.00 0.00 0.00 0.00 0.00 0.00 0.00 0.00 0.00 0.01 0.01 0.01 0.00 0.01 0.01 0.00 0.00 0.00 0.00 0.00 0.00 0.00 0.00 0.00 0.00 0.00 0.00 0.00 0.00 0.00
0.01 0.00 0.05 0.10 0.04 0.01 0.01 0.05 0.08 0.05 0.02 0.01 0.01 0.00 0.00 0.00 0.00 0.00 0.00 0.00 0.00 0.00 0.01 0.01 0.01 0.00 0.00 0.00 0.00 0.00 0.00 0.00 0.00 0.00 0.00 0.00 0.00 0.00 0.00 0.00 0.00 0.00 0.00
0.04 0.02 0.05 0.09 0.03 0.00 0.00 0.03 0.07 0.04 0.02 0.00 0.00 0.00 0.00 0.00 0.00 0.00 0.00 0.00 0.00 0.00 0.00 0.01 0.01 0.00 0.00 0.00 0.00 0.00 0.00 0.00 0.00 0.00 0.00 0.00 0.00 0.00 0.00 0.00 0.00 0.00 0.00
0.04 0.04 0.03 0.04 0.01 0.00 0.00 0.02 0.04 0.02 0.01 0.00 0.00 0.00 0.00 0.00 0.00 0.00 0.00 0.00 0.00 0.00 0.00 0.00 0.00 0.00 0.00 0.00 0.00 0.00 0.00 0.00 0.00 0.00 0.00 0.00 0.00 0.00 0.00 0.00 0.00 0.00 0.00
0.03 0.04 0.04 0.03 0.01 0.01 0.00 0.01 0.03 0.02 0.00 0.00 0.00 0.00 0.00 0.00 0.00 0.00 0.00 0.00 0.00 0.00 0.00 0.00 0.00 0.00 0.00 0.00 0.00 0.00 0.00 0.00 0.00 0.00 0.00 0.00 0.00 0.00 0.00 0.00 0.00 0.00 0.00
0.02 0.03 0.02 0.02 0.00 0.00 0.00 0.01 0.02 0.01 0.01 0.01 0.00 0.00 0.00 0.00 0.00 0.00 0.00 0.00 0.00 0.00 0.00 0.00 0.00 0.00 0.00 0.00 0.00 0.00 0.00 0.00 0.00 0.00 0.00 0.00 0.00 0.00 0.00 0.00 0.00 0.00 0.00
0.02 0.03 0.02 0.01 0.00 0.00 0.00 0.01 0.01 0.01 0.01 0.00 0.00 0.00 0.00 0.01 0.00 0.00 0.00 0.00 0.00 0.00 0.00 0.00 0.00 0.00 0.00 0.00 0.00 0.00 0.00 0.00 0.00 0.00 0.00 0.00 0.00 0.00 0.00 0.00 0.00 0.00 0.00
0.03 0.04 0.02 0.02 0.01 0.00 0.00 0.00 0.01 0.00 0.00 0.00 0.00 0.00 0.00 0.00 0.00 0.00 0.00 0.00 0.00 0.00 0.00 0.00 0.00 0.00 0.00 0.00 0.00 0.00 0.00 0.00 0.00 0.00 0.00 0.00 0.00 0.00 0.00 0.00 0.00 0.00 0.00
0.01 0.02 0.01 0.01 0.01 0.00 0.00 0.00 0.00 0.00 0.00 0.00 0.00 0.00 0.00 0.00 0.00 0.00 0.00 0.00 0.00 0.00 0.00 0.00 0.00 0.00 0.00 0.00 0.00 0.00 0.00 0.00 0.00 0.00 0.00 0.01 0.00 0.00 0.00 0.00 0.00 0.00 0.00
0.00 0.00 0.00 0.00 0.00 0.00 0.00 0.00 0.00 0.00 0.00 0.00 0.00 0.00 0.00 0.00 0.00 0.00 0.00 0.00 0.00 0.00 0.00 0.00 0.00 0.00 0.00 0.00 0.00 0.00 0.00 0.00 0.00 0.00 0.00 0.00 0.00 0.00 0.00 0.00 0.00 0.00 0.00
0.00 0.00 0.01 0.00 0.00 0.00 0.00 0.00 0.00 0.00 0.00 0.00 0.00 0.00 0.00 0.00 0.00 0.00 0.00 0.00 0.00 0.00 0.00 0.00 0.00 0.00 0.00 0.00 0.00 0.00 0.00 0.00 0.00 0.00 0.00 0.00 0.00 0.00 0.00 0.00 0.00 0.00 0.00
0.00 0.00 0.01 0.00 0.00 0.00 0.01 0.01 0.00 0.00 0.00 0.00 0.00 0.00 0.00 0.00 0.00 0.00 0.00 0.00 0.00 0.00 0.00 0.00 0.00 0.00 0.00 0.00 0.00 0.00 0.00 0.00 0.00 0.00 0.00 0.00 0.00 0.00 0.00 0.00 0.00 0.00 0.00
0.00 0.00 0.00 0.00 0.00 0.00 0.01 0.01 0.00 0.00 0.00 0.00 0.00 0.01 0.01 0.01 0.00 0.00 0.00 0.00 0.00 0.00 0.00 0.00 0.00 0.00 0.00 0.00 0.00 0.00 0.00 0.00 0.00 0.00 0.00 0.00 0.00 0.00 0.00 0.00 0.00 0.00 0.00
0.00 0.00 0.00 0.00 0.00 0.00 0.00 0.00 0.00 0.00 0.00 0.00 0.00 0.00 0.00 0.00 0.01 0.00 0.00 0.00 0.02 0.01 0.00 0.00 0.00 0.00 0.00 0.00 0.00 0.00 0.00 0.00 0.00 0.00 0.00 0.00 0.00 0.00 0.00 0.00 0.00 0.00 0.00
0.00 0.00 0.00 0.00 0.00 0.00 0.00 0.00 0.00 0.00 0.00 0.00 0.00 0.00 0.00 0.00 0.00 0.00 0.00 0.00 0.02 0.04 0.02 0.01 0.01 0.00 0.00 0.00 0.00 0.00 0.00 0.00 0.00 0.00 0.00 0.00 0.00 0.00 0.00 0.00 0.00 0.00 0.00
0.00 0.01 0.00 0.00 0.00 0.00 0.00 0.00 0.00 0.00 0.00 0.00 0.00 0.00 0.00 0.00 0.00 0.01 0.01 0.02 0.02 0.06 0.05 0.01 0.02 0.01 0.01 0.00 0.00 0.00 0.00 0.00 0.00 0.00 0.00 0.00 0.00 0.00 0.00 0.00 0.00 0.00 0.00
0.00 0.00 0.00 0.00 0.00 0.00 0.00 0.00 0.00 0.00 0.00 0.00 0.00 0.00 0.00 0.01 0.01 0.00 0.00 0.00 0.01 0.00 0.01 0.00 0.00 0.01 0.01 0.01 0.00 0.00 0.00 0.00 0.00 0.00 0.00 0.00 0.00 0.00 0.00 0.00 0.00 0.00 0.00
0.01 0.01 0.00 0.00 0.00 0.00 0.00 0.00 0.00 0.00 0.00 0.00 0.00 0.00 0.00 0.00 0.00 0.00 0.00 0.00 0.00 0.00 0.01 0.00 0.00 0.01 0.02 0.03 0.03 0.02 0.01 0.01 0.00 0.00 0.00 0.00 0.00 0.00 0.00 0.00 0.00 0.00 0.00
0.00 0.00 0.00 0.00 0.00 0.00 0.00 0.00 0.00 0.00 0.00 0.00 0.00 0.00 0.00 0.00 0.00 0.00 0.00 0.00 0.00 0.01 0.01 0.00 0.00 0.00 0.01 0.00 0.01 0.01 0.01 0.01 0.01 0.00 0.00 0.00 0.00 0.00 0.00 0.00 0.00 0.00 0.00
0.00 0.00 0.00 0.01 0.01 0.00 0.00 0.00 0.00 0.00 0.00 0.00 0.00 0.00 0.00 0.00 0.00 0.01 0.03 0.04 0.04 0.03 0.02 0.02 0.01 0.00 0.00 0.00 0.00 0.00 0.00 0.00 0.00 0.00 0.00 0.00 0.00 0.00 0.00 0.00 0.00 0.00 0.00
0.00 0.00 0.00 0.00 0.00 0.00 0.00 0.00 0.00 0.00 0.00 0.00 0.00 0.00 0.00 0.00 0.00 0.00 0.00 0.01 0.03 0.04 0.02 0.01 0.00 0.00 0.00 0.00 0.00 0.00 0.00 0.00 0.00 0.00 0.00 0.00 0.00 0.00 0.00 0.00 0.00 0.00 0.00
0.01 0.00 0.00 0.00 0.00 0.00 0.00 0.00 0.00 0.00 0.00 0.00 0.00 0.00 0.00 0.00 0.00 0.00 0.00 0.00 0.00 0.00 0.00 0.00 0.00 0.00 0.00 0.00 0.00 0.00 0.00 0.00 0.00 0.00 0.00 0.00 0.00 0.00 0.00 0.00 0.00 0.00 0.00
0.00 0.00 0.00 0.00 0.00 0.00 0.00 0.00 0.00 0.00 0.00 0.00 0.00 0.00 0.00 0.00 0.00 0.00 0.00 0.00 0.00 0.00 0.00 0.00 0.00 0.00 0.00 0.00 0.00 0.00 0.00 0.00 0.00 0.00 0.00 0.00 0.00 0.00 0.00 0.00 0.00 0.00 0.00
0.00 0.00 0.00 0.00 0.00 0.00 0.00 0.00 0.00 0.00 0.00 0.00 0.00 0.00 0.00 0.00 0.00 0.00 0.01 0.01 0.01 0.00 0.00 0.00 0.00 0.00 0.00 0.00 0.00 0.00 0.00 0.00 0.00 0.00 0.00 0.00 0.00 0.00 0.00 0.00 0.00 0.00 0.00
0.00 0.00 0.00 0.00 0.00 0.00 0.00 0.00 0.00 0.00 0.00 0.00 0.00 0.00 0.00 0.00 0.00 0.00 0.00 0.00 0.00 0.00 0.00 0.00 0.00 0.00 0.00 0.00 0.00 0.00 0.00 0.00 0.00 0.00 0.00 0.00 0.00 0.00 0.00 0.00 0.00 0.00 0.00
MSLP
1013.92 1014.25 1014.86 1015.29 1015.69 1016.41 1016.73 1017.09 1017.38 1017.50 1017.79 1018.40 1018.80 1019.33 1019.69 1020.01 1020.38 1020.59 1021.38 1022.94 1023.22 1023.57 1023.95 1024.26 1024.63 1024.98 1025.38 1025.68 1026.03 1026.35 1026.63 1026.72 1026.92 1027.09 1027.30 1027.49 1027.78 1027.95 1028.04 1028.22 1028.41 1028.67 1028.95
1013.30 1013.65 1014.49 1014.84 1015.43 1016.17 1016.54 1016.84 1017.35 1017.53 1017.77 1018.02 1018.74 1019.28 1019.77 1020.33 1020.78 1020.88 1021.35 1022.98 1023.42 1023.72 1024.05 1024.36 1024.74 1025.01 1025.39 1025.74 1026.07 1026.32 1026.69 1026.89 1027.12 1027.29 1027.48 1027.73 1027.86 1028.16 1028.34 1028.46 1028.61 1028.76 1029.09
1013.24 1013.49 1014.23 1014.70 1015.14 1015.82 1016.44 1016.96 1017.09 1017.44 1017.51 1017.85 1018.71 1019.32 1019.87 1020.41 1020.77 1021.14 1021.48 1022.90 1023.42 1023.89 1024.20 1024.45 1024.79 1025.13 1025.37 1025.70 1026.13 1026.32 1026.66 1027.02 1027.24 1027.52 1027.67 1027.88 1028.07 1028.25 1028.46 1028.56 1028.70 1028.72 1029.00
1013.07 1013.21 1013.84 1014.18 1014.67 1015.78 1016.36 1016.96 1017.09 1017.33 1017.60 1017.87 1018.47 1019.20 1019.69 1020.38 1020.92 1021.30 1021.43 1022.53 1023.22 1023.51 1024.24 1024.55 1024.82 1025.07 1025.38 1025.64 1026.05 1026.32 1026.56 1026.92 1027.05 1027.38 1027.64 1027.97 1028.15 1028.31 1028.47 1028.58 1028.73 1028.77 1028.93
1012.69 1012.86 1013.53 1014.13 1014.66 1015.44 1016.33 1016.83 1017.09 1017.22 1017.41 1017.82 1018.61 1019.17 1019.54 1020.12 1020.81 1021.11 1021.31 1022.00 1022.79 1023.21 1023.72 1024.52 1024.89 1025.11 1025.33 1025.56 1025.83 1026.12 1026.35 1026.62 1026.90 1027.12 1027.41 1027.76 1027.96 1028.11 1028.34 1028.60 1028.58 1028.61 1028.76
1012.13 1012.68 1013.14 1013.72 1014.22 1015.27 1016.01 1016.53 1016.65 1016.84 1016.97 1017.69 1018.32 1019.02 1019.81 1020.13 1020.63 1020.92 1021.17 1021.75 1022.17 1022.59 1023.50 1023.98 1024.65 1024.83 1025.27 1025.51 1025.65 1025.89 1026.07 1026.34 1026.61 1026.82 1027.03 1027.39 1027.61 1027.82 1028.03 1028.21 1028.36 1028.39 1028.50
1011.47 1012.01 1012.52 1013.16 1013.87 1014.70 1015.37 1015.99 1016.24 1016.41 1016.77 1017.57 1018.32 1019.30 1020.10 1020.51 1020.78 1020.61 1021.10 1021.40 1021.90 1022.48 1022.73 1022.89 1023.60 1023.84 1024.63 1025.25 1025.38 1025.52 1025.60 1025.78 1026.03 1026.33 1026.58 1026.90 1027.17 1027.38 1027.53 1027.75 1027.88 1027.99 1027.98
1010.77 1011.35 1012.00 1012.71 1013.24 1014.31 1015.04 1015.36 1015.83 1016.01 1016.46 1017.63 1018.16 1019.04 1020.00 1020.98 1020.99 1020.88 1020.81 1021.24 1021.79 1022.19 1022.62 1022.89 1023.11 1023.20 1023.35 1024.12 1024.63 1025.12 1025.25 1025.30 1025.44 1025.66 1025.95 1026.29 1026.52 1026.68 1026.86 1027.06 1027.26 1027.35 1027.42
1010.28 1010.88 1011.41 1012.44 1013.10 1013.69 1014.06 1014.84 1015.34 1015.54 1016.26 1017.43 1017.56 1017.79 1018.65 1018.61 1019.85 1020.67 1020.87 1021.02 1021.49 1021.81 1021.87 1022.30 1022.67 1022.91 1023.22 1023.25 1023.65 1024.24 1024.68 1024.93 1025.03 1025.09 1025.21 1025.46 1025.65 1025.90 1026.11 1026.24 1026.43 1026.53 1026.60
1009.78 1010.49 1010.92 1011.85 1012.58 1013.42 1013.94 1014.44 1015.01 1015.31 1015.81 1016.68 1017.36 1017.29 1017.39 1017.06 1018.25 1019.47 1020.16 1020.67 1020.98 1021.31 1021.57 1021.61 1021.98 1022.48 1022.81 1023.09 1023.18 1023.14 1023.46 1024.12 1024.50 1024.62 1024.69 1024.81 1024.96 1025.13 1025.29 1025.35 1025.45 1025.55 1025.69
1009.22 1009.99 1010.58 1011.33 1012.17 1013.08 1013.67 1014.15 1014.65 1014.96 1015.66 1016.13 1016.62 1017.02 1017.46 1017.58 1017.78 1017.65 1018.41 1019.49 1020.12 1020.37 1020.69 1021.20 1021.35 1021.77 1022.26 1022.39 1022.29 1022.54 1023.09 1023.56 1023.75 1024.05 1024.14 1024.20 1024.35 1024.40 1024.45 1024.44 1024.52 1024.59 1024.65
1008.62 1009.25 1010.13 1010.77 1011.58 1012.50 1013.27 1013.83 1014.41 1014.64 1015.37 1015.96 1016.43 1016.78 1017.13 1017.33 1017.52 1017.59 1017.75 1018.38 1018.97 1019.51 1020.00 1020.34 1020.90 1021.05 1021.17 1021.41 1021.64 1021.85 1022.44 1022.80 1023.08 1023.36 1023.45 1023.46 1023.48 1023.55 1023.57 1023.58 1023.58 1023.52 1023.47
1008.64 1009.22 1009.65 1010.28 1011.09 1012.03 1012.86 1013.66 1014.22 1014.75 1015.36 1015.64 1016.12 1016.43 1016.77 1017.05 1017.08 1017.42 1017.53 1017.75 1018.38 1018.71 1019.28 1019.60 1019.73 1020.12 1020.48 1020.88 1020.93 1021.31 1021.82 1022.39 1022.56 1022.55 1022.51 1022.50 1022.51 1022.48 1022.49 1022.50 1022.44 1022.37 1022.27
1008.59 1009.34 1009.90 1010.23 1011.24 1011.67 1012.77 1013.61 1014.34 1014.97 1015.45 1015.75 1016.11 1016.41 1016.75 1016.96 1017.18 1017.47 1017.60 1017.97 1018.19 1018.29 1018.64 1018.64 1019.27 1019.48 1019.57 1019.84 1020.27 1020.71 1020.58 1021.30 1021.51 1021.60 1021.57 1021.50 1021.49 1021.53 1021.57 1021.52 1021.40 1021.19 1021.01
1008.59 1009.46 1009.90 1010.36 1011.19 1011.84 1012.74 1013.65 1014.31 1014.94 1015.42 1015.70 1015.91 1016.24 1016.57 1016.95 1017.32 1017.30 1017.49 1017.65 1017.87 1018.13 1017.76 1017.79 1018.28 1018.92 1019.30 1019.48 1019.55 1019.81 1020.07 1020.12 1020.13 1020.37 1020.42 1020.30 1020.46 1020.46 1020.39 1020.25 1020.17 1020.19 1020.10
1008.58 1009.33 1009.95 1010.74 1011.25 1012.00 1012.75 1013.52 1014.25 1014.97 1015.38 1015.65 1015.87 1016.02 1015.99 1016.77 1016.91 1017.54 1017.74 1017.98 1018.05 1018.18 1017.94 1017.67 1017.64 1017.76 1018.66 1019.16 1018.86 1019.05 1018.69 1018.98 1019.12 1019.14 1018.87 1018.89 1018.94 1018.96 1019.05 1018.98 1018.96 1018.89 1018.67
1008.59 1009.33 1010.05 1010.62 1011.40 1012.15 1012.84 1013.49 1014.28 1014.74 1015.09 1015.41 1015.66 1015.74 1015.81 1016.38 1017.13 1017.41 1017.73 1017.76 1018.12 1018.30 1018.34 1017.89 1017.75 1017.60 1017.91 1018.12 1017.74 1018.07 1017.93 1017.75 1017.28 1017.60 1017.69 1017.70 1017.55 1017.50 1017.40 1017.26 1017.21 1017.04 1016.78
1008.48 1009.01 1009.57 1010.36 1011.19 1011.92 1012.58 1013.27 1013.69 1014.08 1014.49 1014.77 1014.68 1015.57 1015.77 1016.29 1016.80 1017.16 1017.48 1017.75 1018.16 1018.31 1017.94 1017.76 1017.45 1017.36 1017.28 1017.07 1016.76 1016.66 1016.13 1016.06 1016.19 1016.09 1016.13 1016.03 1015.93 1015.87 1015.97 1016.19 1016.12 1016.05 1015.92
1008.50 1009.09 1009.67 1010.21 1010.81 1011.56 1012.17 1012.71 1013.16 1013.55 1013.78 1014.08 1014.45 1014.65 1014.91 1015.63 1016.23 1016.46 1016.73 1017.05 1017.25 1017.04 1017.11 1016.95 1016.10 1016.13 1015.82 1015.59 1015.26 1015.13 1014.96 1014.80 1014.61 1014.37 1014.52 1014.55 1014.54 1014.59 1014.70 1014.85 1014.96 1014.99 1015.03
1008.03 1008.53 1009.27 1009.94 1010.58 1011.05 1011.62 1012.21 1012.71 1012.98 1013.37 1013.44 1013.78 1014.15 1014.54 1014.90 1014.96 1015.37 1015.70 1015.80 1016.11 1016.00 1015.85 1015.89 1015.84 1015.40 1015.17 1014.57 1014.57 1014.18 1013.69 1013.45 1013.40 1013.14 1012.90 1013.17 1013.13 1013.30 1014.12 1014.91 1014.86 1014.82 1014.59
1008.15 1008.29 1008.79 1009.35 1009.82 1010.49 1011.08 1011.61 1011.96 1012.28 1012.56 1012.52 1012.69 1013.16 1013.57 1013.98 1014.16 1014.62 1014.71 1014.78 1014.92 1014.97 1015.03 1014.76 1014.63 1014.51 1014.19 1013.97 1013.72 1013.51 1013.35 1013.29 1013.02 1012.97 1012.85 1013.04 1014.50 1014.84 1015.20 1015.27 1015.15 1014.80 1014.43
1008.26 1008.73 1009.03 1009.18 1009.55 1010.17 1011.37 1011.29 1011.08 1011.32 1011.68 1011.95 1012.27 1012.70 1012.98 1013.32 1013.65 1013.85 1013.93 1014.01 1014.12 1014.31 1014.51 1014.50 1014.38 1014.20 1014.06 1013.93 1013.85 1013.70 1013.50 1013.51 1013.25 1014.48 1014.54 1014.94 1015.61 1016.00 1016.01 1015.97 1016.08 1015.55 1015.04
1008.01 1008.77 1009.26 1009.54 1011.14 1011.94 1012.39 1012.16 1011.90 1011.73 1011.72 1012.06 1012.31 1012.45 1012.63 1012.94 1013.34 1013.58 1013.73 1013.95 1014.21 1014.84 1015.00 1015.15 1015.00 1015.02 1015.31 1015.66 1015.63 1014.95 1014.73 1014.94 1015.31 1015.80 1015.90 1015.96 1016.32 1017.06 1017.23 1017.25 1016.51 1016.28 1016.16
1010.12 1010.67 1011.38 1011.97 1012.65 1013.32 1013.18 1012.75 1012.44 1012.43 1012.42 1013.60 1014.08 1014.22 1014.20 1014.33 1014.62 1014.55 1014.53 1014.92 1015.56 1015.79 1015.81 1015.89 1016.29 1016.75 1016.76 1016.70 1016.51 1016.04 1015.67 1015.54 1015.78 1016.70 1016.78 1016.46 1017.01 1017.23 1017.32 1017.67 1017.44 1017.16 1017.03
1012.01 1012.50 1013.02 1013.29 1013.69 1014.05 1013.65 1013.01 1012.52 1012.80 1013.76 1014.69 1015.28 1015.41 1015.37 1015.38 1015.34 1014.96 1014.69 1015.23 1016.19 1017.02 1017.62 1017.52 1018.01 1017.62 1017.53 1017.72 1016.52 1015.82 1016.19 1015.73 1016.46 1017.23 1017.59 1017.32 1017.57 1017.85 1017.80 1017.85 1017.77 1017.42 1017.57
1013.26 1013.86 1014.30 1014.74 1015.01 1014.92 1014.53 1013.90 1013.45 1013.89 1014.71 1015.61 1016.23 1016.42 1016.55 1016.46 1015.97 1015.42 1015.03 1015.65 1016.58 1017.56 1017.71 1018.64 1017.18 1018.69 1017.90 1017.81 1017.85 1017.47 1016.97 1016.82 1016.74 1017.34 1018.06 1017.89 1017.63 1017.57 1017.56 1017.57 1017.30 1017.38 1017.41
Thickness
5641 5636 5631 5631 5631 5629 5628 5630 5630 5629 5631 5629 5631 5630 5630 5630 5630 5632 5629 5622 5622 5619 5618 5617 5615 5615 5614 5613 5611 5609 5607 5606 5606 5605 5604 5603 5601 5600 5600 5598 5597 5594 5591
5638 5635 5630 5629 5628 5625 5627 5628 5628 5626 5626 5628 5625 5625 5625 5623 5624 5625 5625 5617 5616 5614 5613 5612 5611 5610 5610 5609 5607 5605 5602 5601 5600 5599 5598 5597 5597 5594 5594 5592 5591 5590 5586
5633 5632 5628 5627 5626 5623 5622 5622 5623 5622 5623 5624 5621 5620 5619 5618 5619 5620 5620 5612 5611 5610 5609 5608 5607 5607 5606 5605 5603 5602 5599 5597 5595 5593 5592 5590 5590 5589 5588 5587 5585 5586 5582
5627 5627 5626 5625 5623 5618 5618 5618 5620 5620 5620 5622 5620 5618 5616 5615 5614 5614 5615 5610 5608 5607 5604 5604 5604 5604 5603 5602 5600 5598 5596 5594 5594 5590 5588 5585 5584 5583 5583 5582 5581 5581 5579
5621 5623 5622 5620 5618 5616 5614 5613 5615 5617 5618 5618 5615 5614 5615 5613 5611 5611 5612 5608 5606 5605 5603 5600 5599 5599 5599 5598 5597 5595 5593 5591 5589 5587 5585 5582 5580 5579 5578 5576 5577 5577 5575
5620 5618 5617 5615 5616 5612 5610 5610 5614 5617 5618 5615 5614 5612 5609 5609 5606 5606 5607 5605 5605 5605 5600 5598 5595 5595 5594 5593 5593 5591 5590 5587 5585 5584 5582 5579 5577 5574 5573 5573 5572 5571 5571
5619 5616 5615 5614 5613 5611 5611 5611 5613 5615 5614 5614 5609 5604 5601 5600 5601 5605 5603 5604 5603 5601 5601 5600 5596 5596 5592 5589 5588 5588 5587 5585 5583 5580 5577 5575 5573 5570 5569 5567 5568 5567 5568
5619 5615 5614 5613 5614 5609 5605 5609 5610 5613 5613 5609 5604 5599 5592 5591 5595 5600 5602 5601 5599 5597 5596 5595 5594 5595 5594 5589 5587 5585 5583 5582 5580 5578 5574 5571 5569 5567 5566 5564 5564 5564 5564
5616 5613 5613 5611 5610 5608 5609 5609 5611 5613 5609 5605 5609 5608 5597 5602 5597 5596 5596 5597 5594 5594 5594 5592 5590 5590 5589 5590 5588 5585 5582 5578 5576 5574 5572 5570 5567 5565 5563 5562 5561 5562 5561
5612 5609 5609 5609 5609 5606 5606 5608 5610 5612 5611 5605 5604 5610 5611 5617 5603 5592 5595 5593 5593 5592 5590 5589 5588 5585 5584 5583 5583 5583 5581 5576 5573 5571 5568 5566 5565 5563 5562 5561 5561 5561 5560
5612 5608 5608 5607 5606 5603 5605 5608 5608 5610 5608 5608 5606 5606 5604 5607 5608 5608 5599 5593 5592 5592 5589 5586 5586 5584 5579 5578 5579 5579 5576 5573 5571 5567 5566 5564 5561 5561 5561 5561 5561 5561 5561
5611 5610 5608 5607 5607 5604 5603 5605 5605 5608 5607 5606 5605 5604 5602 5601 5600 5601 5599 5596 5592 5591 5588 5586 5583 5581 5580 5579 5578 5577 5573 5570 5568 5566 5564 5562 5562 5561 5561 5561 5561 5562 5564
5607 5606 5606 5605 5605 5604 5604 5602 5602 5603 5603 5605 5603 5602 5602 5600 5601 5599 5597 5595 5590 5591 5587 5587 5586 5583 5579 5576 5575 5574 5570 5566 5565 5565 5564 5565 5565 5564 5564 5563 5565 5567 5567
5604 5599 5596 5600 5598 5603 5600 5598 5597 5597 5598 5598 5598 5598 5596 5595 5596 5593 5591 5587 5584 5585 5586 5587 5583 5582 5580 5576 5573 5572 5573 5567 5566 5567 5568 5568 5568 5568 5567 5566 5567 5568 5569
5600 5594 5594 5599 5598 5599 5597 5595 5594 5594 5594 5595 5595 5593 5592 5590 5588 5590 5589 5587 5584 5577 5584 5588 5583 5579 5575 5574 5573 5571 5568 5568 5569 5569 5570 5572 5570 5569 5569 5570 5570 5569 5570
5598 5594 5593 5595 5597 5595 5594 5592 5592 5590 5590 5589 5588 5588 5591 5586 5586 5581 5581 5579 5579 5577 5576 5582 5582 5584 5574 5572 5574 5572 5574 5571 5570 5571 5574 5574 5574 5572 5571 5572 5571 5571 5571
5598 5596 5593 5595 5592 5591 5590 5590 5586 5585 5585 5584 5584 5585 5586 5582 5576 5575 5574 5574 5571 5569 5565 5573 5575 5577 5573 5572 5574 5571 5572 5573 5575 5574 5575 5574 5575 5574 5574 5573 5572 5572 5573
5600 5598 5597 5595 5592 5590 5587 5586 5585 5585 5584 5584 5586 5580 5580 5578 5575 5573 5571 5568 5564 5562 5563 5563 5571 5572 5571 5573 5574 5574 5578 5577 5573 5575 5576 5575 5576 5576 5573 5569 5568 5568 5568
5600 5597 5596 5594 5593 5591 5588 5587 5587 5585 5585 5586 5584 5584 5583 5578 5576 5574 5571 5567 5566 5568 5566 5566 5576 5575 5578 5578 5578 5579 5580 5578 5577 5578 5578 5579 5577 5574 5570 5566 5564 5565 5563
5603 5602 5598 5595 5592 5592 5591 5589 5586 5587 5586 5587 5585 5583 5581 5579 5580 5576 5573 5574 5569 5569 5570 5568 5568 5574 5575 5581 5576 5578 5579 5581 5579 5578 5577 5572 5572 5570 5563 5556 5553 5550 5549
5600 5602 5600 5598 5597 5594 5592 5590 5589 5589 5587 5589 5589 5586 5583 5580 5579 5575 5576 5576 5574 5573 5572 5573 5572 5572 5576 5575 5575 5576 5573 5574 5574 5571 5568 5565 5551 5548 5542 5539 5537 5537 5536
5596 5594 5594 5595 5595 5594 5580 5583 5590 5590 5588 5586 5583 5581 5581 5577 5576 5573 5574 5573 5572 5572 5569 5568 5568 5566 5568 5568 5569 5567 5565 5562 5561 5545 5545 5538 5531 5524 5522 5519 5516 5517 5516
5596 5591 5589 5589 5577 5572 5567 5570 5573 5581 5582 5578 5578 5579 5578 5576 5572 5571 5567 5563 5560 5552 5549 5550 5553 5554 5546 5535 5534 5539 5538 5531 5525 5520 5517 5513 5508 5499 5495 5491 5493 5492 5489
5570 5568 5563 5561 5558 5554 5557 5561 5564 5568 5568 5557 5553 5553 5554 5553 5549 5550 5550 5545 5538 5536 5535 5533 5528 5520 5519 5517 5515 5516 5515 5513 5505 5495 5494 5497 5484 5477 5473 5467 5465 5463 5462
5548 5546 5544 5544 5543 5542 5547 5552 5557 5556 5547 5539 5535 5534 5535 5534 5534 5536 5540 5532 5522 5515 5509 5509 5501 5502 5500 5494 5499 5503 5494 5495 5489 5475 5468 5465 5457 5451 5448 5444 5441 5439 5433
5531 5529 5526 5524 5524 5527 5532 5537 5541 5536 5528 5521 5517 5516 5514 5513 5515 5519 5523 5515 5507 5497 5493 5484 5494 5476 5480 5477 5473 5472 5470 5466 5465 5457 5443 5440 5436 5431 5428 5422 5420 5414 5410